Погода в Андижане

Узбекистан     40°36′31″N   68°14′34″E
темп.,
°C
ветер,
м/с
пор.,
м/с
влажн.,
%
обл.,
%
осадки,
мм/ч
давл.,
гПа
погр.,
м
22 июня, вт
вт2223:00+24ю22200 0.0 101211
02:00+22ююз22180 0.0 101013
05:00+21ююв01200 0.0 101111
08:00+28з11170 0.0 1012276
11:00+33з44150 0.0 10111270
14:00+35сз65160 0.0 10093119
17:00+35ссз66140 0.0 10093028
20:00+27с513190 0.0 1010242
23 июня, ср
ср2323:00+21св23240 0.0 101141
02:00+19з33280 0.0 101226
05:00+18сз33365 0.0 101232
08:00+23сз45280 0.0 1013441
11:00+29ссз44190 0.0 10121247
14:00+33ссз44140 0.0 10111782
17:00+34с33120 0.0 10091963
20:00+27зсз22190 0.0 100912
24 июня, чт
чт2423:00+23с49270 0.0 1010137
02:00+20зюз22330 0.0 101019
05:00+19зсз34330 0.0 101046
08:00+25сз34260 0.0 1010320
11:00+32ссз44170 0.0 10091383
14:00+35ссз55130 0.0 10072098
17:00+35с45140 0.0 10062699
20:00+29ююв11210 0.0 100711
25 июня, пт
пт2523:00+27зюз12227 0.0 100716
02:00+23с49450 0.0 1007139
05:00+20зсз34580 0.0 100957
08:00+25сз34450 0.0 1009448
11:00+31ссз44290 0.0 10081549
14:00+33с54220 0.0 10062064
17:00+34с55170 0.0 10052208
20:00+26ссз410220 0.0 1006150
26 июня, сб
сб2623:00+23с410220 0.0 1007155
02:00+19з33270 0.0 100722
05:00+18зсз44311 0.0 100749
08:00+24зсз45265 0.0 1008444
11:00+30сз45190 0.0 10071080
14:00+35ссз45160 0.0 10051714
17:00+35ссз33130 0.0 10041931
20:00+28зсз11200 0.0 100511